Date String (YYYY-MM-DD hh:mm:ss) UTC,Instrument flags,absolute air pressure of the measurement (hPa),sample flow rate (lpm),inlet stack bypass flow (lpm),air temperature of the measurement (°C),ambient temperature measured by the external sensor (°C),aerosol sample conditioner tube jacket temperature (°C),OPC LED temperature (°C),internal box temperature (°C),relative humidity of the measurement (%),span deviation,mass concentration of particles derived from Lorenz-Mie calculation of OPC scattering (μg/m³),mass concentration of particles derived from Lorenz-Mie calculation of OPC scattering (μg/m³),mass concentration of particles derived from Lorenz-Mie calculation of OPC scattering (μg/m³)
DateTimeUTC,F1_M11,P_M11,Q1_M11,Q2_M11,T1_M11,T2_M11,T3_M11,T4_M11,T5_M11,U1_M11,ZSPAN_M11,X2_M11,X0_M11,X1_M11
2024-05-31 00:00:00,SystemResetWarning,0828.1,5.01,000.00,030.1,029.5,000.0,038.2,031.9,019.6,0000.0,0004.34,0019.33,0003.06
2024-05-31 00:01:00,SystemResetWarning,0828.1,5.00,000.00,030.1,029.6,000.0,038.3,031.9,019.7,0000.0,0004.34,0018.84,0003.06
2024-05-31 00:02:00,SystemResetWarning,0828.1,5.00,000.00,030.2,029.7,000.0,038.3,032.0,019.4,0000.0,0004.29,0018.31,0003.05
2024-05-31 00:03:00,SystemResetWarning,0828.1,5.00,000.00,030.2,029.7,000.0,038.3,032.0,019.8,0000.0,0004.26,0018.34,0003.02
2024-05-31 00:04:00,SystemResetWarning,0828.1,5.00,000.00,030.3,029.8,000.0,038.4,032.1,019.7,0000.0,0004.27,0018.50,0002.98
2024-05-31 00:05:00,SystemResetWarning,0828.1,5.00,000.00,030.3,029.8,000.0,038.4,032.1,019.7,0000.0,0004.28,0018.38,0002.96
2024-05-31 00:06:00,SystemResetWarning,0828.1,5.00,000.00,030.4,029.8,000.0,038.5,032.1,019.5,0000.0,0004.23,0018.16,0002.93
2024-05-31 00:07:00,SystemResetWarning,0828.1,4.98,000.00,030.2,027.8,000.0,038.5,031.1,019.8,0000.0,0004.17,0018.87,0002.90
2024-05-31 00:08:00,SystemResetWarning,0828.1,5.02,000.00,029.8,026.5,000.0,038.5,030.4,020.2,0000.0,0004.15,0019.20,0002.89
2024-05-31 00:09:00,SystemResetWarning,0828.1,5.00,000.00,029.6,026.8,000.0,038.4,030.5,021.1,0000.0,0004.10,0019.55,0002.85
2024-05-31 00:10:00,SystemResetWarning,0828.1,5.00,000.00,029.6,027.2,000.0,038.3,030.8,021.3,0000.0,0004.12,0018.99,0002.84
2024-05-31 00:11:00,SystemResetWarning,0828.1,5.01,000.00,029.6,027.6,000.0,038.2,031.0,021.4,0000.0,0004.11,0019.95,0002.84
2024-05-31 00:12:00,SystemResetWarning,0828.2,5.00,000.00,029.6,028.0,000.0,038.2,031.2,020.7,0000.0,0004.09,0020.65,0002.81
2024-05-31 00:13:00,SystemResetWarning,0828.2,5.00,000.00,029.7,028.3,000.0,038.2,031.3,020.0,0000.0,0004.09,0021.12,0002.80
2024-05-31 00:14:00,SystemResetWarning,0828.2,5.00,000.00,029.7,028.6,000.0,038.2,031.4,020.3,0000.0,0004.11,0021.40,0002.80
2024-05-31 00:15:00,SystemResetWarning,0828.2,4.99,000.00,029.8,028.8,000.0,038.2,031.5,020.5,0000.0,0004.08,0020.07,0002.79
2024-05-31 00:16:00,SystemResetWarning,0828.2,5.00,000.00,029.9,029.0,000.0,038.2,031.6,020.4,0000.0,0004.05,0020.01,0002.78
2024-05-31 00:17:00,SystemResetWarning,0828.2,5.00,000.00,029.9,029.1,000.0,038.2,031.7,020.3,0000.0,0004.04,0019.62,0002.79
2024-05-31 00:18:00,SystemResetWarning,0828.3,5.00,000.00,030.0,029.3,000.0,038.2,031.8,019.9,0000.0,0004.04,0019.10,0002.80
2024-05-31 00:19:00,SystemResetWarning,0828.3,4.99,000.00,030.0,029.4,000.0,038.2,031.8,020.2,0000.0,0004.08,0018.79,0002.79
2024-05-31 00:20:00,SystemResetWarning,0828.3,4.99,000.00,030.1,029.5,000.0,038.3,031.9,020.2,0000.0,0004.08,0017.40,0002.78
2024-05-31 00:21:00,SystemResetWarning,0828.3,5.00,000.00,030.1,029.6,000.0,038.3,032.0,020.2,0000.0,0004.11,0017.79,0002.78
2024-05-31 00:22:00,SystemResetWarning,0828.3,5.01,000.00,030.2,029.7,000.0,038.3,032.0,020.2,0000.0,0004.07,0017.11,0002.77
2024-05-31 00:23:00,SystemResetWarning,0828.3,5.01,000.00,030.2,029.7,000.0,038.4,032.1,020.1,0000.0,0004.08,0016.96,0002.78
2024-05-31 00:24:00,SystemResetWarning,0828.3,5.00,000.00,030.3,029.8,000.0,038.4,032.1,019.7,0000.0,0004.07,0016.17,0002.76
2024-05-31 00:25:00,SystemResetWarning,0828.3,5.00,000.00,030.3,029.9,000.0,038.4,032.2,019.1,0000.0,0004.04,0015.81,0002.76
2024-05-31 00:26:00,SystemResetWarning,0828.3,4.99,000.00,030.4,029.9,000.0,038.5,032.2,019.3,0000.0,0004.02,0016.03,0002.77
2024-05-31 00:27:00,SystemResetWarning,0828.4,5.00,000.00,030.4,030.0,000.0,038.5,032.3,019.4,0000.0,0004.03,0015.96,0002.77
2024-05-31 00:28:00,SystemResetWarning,0828.3,4.98,000.00,030.4,028.8,000.0,038.6,031.5,019.6,0000.0,0004.04,0016.76,0002.76
2024-05-31 00:29:00,SystemResetWarning,0828.2,5.01,000.00,029.9,026.8,000.0,038.6,030.6,019.6,0000.0,0004.10,0016.55,0002.76
2024-05-31 00:30:00,SystemResetWarning,0828.2,5.02,000.00,029.7,026.8,000.0,038.6,030.5,020.3,0000.0,0004.04,0015.31,0002.76
2024-05-31 00:31:00,SystemResetWarning,0828.2,5.00,000.00,029.7,027.2,000.0,038.4,030.7,020.6,0000.0,0004.01,0015.38,0002.75
2024-05-31 00:32:00,SystemResetWarning,0828.2,5.00,000.00,029.7,027.6,000.0,038.4,031.0,020.2,0000.0,0003.97,0016.27,0002.73
2024-05-31 00:33:00,SystemResetWarning,0828.3,5.00,000.00,029.7,028.0,000.0,038.3,031.2,019.9,0000.0,0004.03,0017.83,0002.73
2024-05-31 00:34:00,SystemResetWarning,0828.2,5.00,000.00,029.7,028.3,000.0,038.3,031.4,020.2,0000.0,0004.06,0017.72,0002.72
2024-05-31 00:35:00,SystemResetWarning,0828.3,5.00,000.00,029.8,028.6,000.0,038.3,031.5,020.5,0000.0,0004.05,0017.52,0002.73
2024-05-31 00:36:00,SystemResetWarning,0828.3,5.00,000.00,029.8,028.8,000.0,038.3,031.6,020.3,0000.0,0004.06,0017.17,0002.73
2024-05-31 00:37:00,SystemResetWarning,0828.3,5.00,000.00,029.9,029.0,000.0,038.3,031.7,019.9,0000.0,0004.14,0017.38,0002.74
2024-05-31 00:38:00,SystemResetWarning,0828.3,5.00,000.00,030.0,029.2,000.0,038.3,031.8,019.7,0000.0,0004.22,0018.51,0002.77
2024-05-31 00:39:00,SystemResetWarning,0828.3,4.99,000.00,030.0,029.3,000.0,038.3,031.8,019.8,0000.0,0004.27,0017.77,0002.77
2024-05-31 00:40:00,SystemResetWarning,0828.2,4.99,000.00,030.1,029.4,000.0,038.3,031.9,019.8,0000.0,0004.26,0017.38,0002.78
2024-05-31 00:41:00,SystemResetWarning,0828.3,5.01,000.00,030.1,029.5,000.0,038.3,031.9,019.6,0000.0,0004.28,0017.29,0002.78
2024-05-31 00:42:00,SystemResetWarning,0828.3,5.01,000.00,030.2,029.6,000.0,038.4,032.0,019.6,0000.0,0004.32,0016.82,0002.79
2024-05-31 00:43:00,SystemResetWarning,0828.4,5.00,000.00,030.2,029.7,000.0,038.4,032.1,019.7,0000.0,0004.32,0016.51,0002.79
2024-05-31 00:44:00,SystemResetWarning,0828.3,4.99,000.00,030.3,029.8,000.0,038.4,032.1,019.6,0000.0,0004.23,0015.24,0002.78
2024-05-31 00:45:00,SystemResetWarning,0828.3,5.01,000.00,030.4,029.9,000.0,038.5,032.2,019.5,0000.0,0004.18,0014.98,0002.79
2024-05-31 00:46:00,SystemResetWarning,0828.4,5.01,000.00,030.4,029.9,000.0,038.5,032.2,019.5,0000.0,0004.23,0015.19,0002.80
2024-05-31 00:47:00,SystemResetWarning,0828.4,5.01,000.00,030.5,030.0,000.0,038.6,032.3,019.4,0000.0,0004.25,0015.71,0002.80
2024-05-31 00:48:00,SystemResetWarning,0828.4,5.01,000.00,030.5,030.1,000.0,038.6,032.3,019.4,0000.0,0004.18,0014.85,0002.79
2024-05-31 00:49:00,SystemResetWarning,0828.3,5.00,000.00,030.6,030.1,000.0,038.6,032.4,019.2,0000.0,0004.10,0014.22,0002.76
2024-05-31 00:50:00,SystemResetWarning,0828.3,5.00,000.00,030.6,030.2,000.0,038.7,032.4,019.2,0000.0,0004.06,0014.37,0002.75
2024-05-31 00:51:00,SystemResetWarning,0828.4,4.99,000.00,030.6,029.9,000.0,038.7,032.2,019.2,0000.0,0004.02,0014.85,0002.73
2024-05-31 00:52:00,SystemResetWarning,0828.3,5.00,000.00,030.3,027.5,000.0,038.8,031.1,019.2,0000.0,0004.04,0015.50,0002.73
2024-05-31 00:53:00,SystemResetWarning,0828.3,5.01,000.00,030.0,026.7,000.0,038.8,030.6,019.8,0000.0,0004.09,0016.16,0002.75
2024-05-31 00:54:00,SystemResetWarning,0828.4,5.00,000.00,029.8,027.1,000.0,038.6,030.7,020.4,0000.0,0004.09,0016.99,0002.76
2024-05-31 00:55:00,SystemResetWarning,0828.4,5.00,000.00,029.8,027.5,000.0,038.5,031.0,020.4,0000.0,0004.14,0017.02,0002.76
2024-05-31 00:56:00,SystemResetWarning,0828.4,4.99,000.00,029.8,027.8,000.0,038.5,031.3,020.5,0000.0,0004.18,0017.48,0002.77
2024-05-31 00:57:00,SystemResetWarning,0828.3,5.00,000.00,029.9,028.2,000.0,038.4,031.4,020.3,0000.0,0004.15,0019.37,0002.78
2024-05-31 00:58:00,SystemResetWarning,0828.3,5.00,000.00,029.9,028.5,000.0,038.4,031.5,020.2,0000.0,0004.14,0019.14,0002.77
2024-05-31 00:59:00,SystemResetWarning,0828.4,5.00,000.00,030.0,028.8,000.0,038.4,031.6,020.1,0000.0,0004.15,0019.31,0002.76
